Location: ????????
(55.0559°N, 39.1270°E)
Time: 18:26:02
(UTC+00:00)

CENTAUR R/B - Pass Details

Date: 15 November 2025
Orbit: 633 x 1548 km, 63.4° (Epoch: 14 December)

Event Time Altitude Azimuth Distance (km) Brightness Sun altitude
Exits shadow 01:53:11 36° 312° (NW) 1,943 3.7 -25.8°
Maximum altitude 01:57:05 85° 39° (NE) 1,388 3.2 -25.2°
Drops below altitude 10° 02:06:21 10° 129° (SE) 3,675 6.1 -23.9°
Sets 02:09:30 0° 130° (SE) 4,693 6.8 -23.4°
